KS5S Weather Reports


Display with metric or nautical units.
time (UTC)temp
F
wind
direction
speed
MPH
gust
MPH
rain 1hr
in
rain 24hr
in
rain mn
in
humidity
%
barometer
mb
20260831001759 98 170 4.0 9.0 0.00 0.00 0.00 31 1010.9
20260831001253 98 177 3.0 7.0 0.00 0.00 0.00 31 1010.9
20260831000750 98 182 2.0 7.0 0.00 0.00 0.00 31 1011.4
20260831000245 98 154 3.0 10.0 0.00 0.00 0.00 31 1011.0
20260830235744 98 177 6.0 16.0 0.00 0.00 0.00 31 1011.2
20260830235239 99 160 5.0 9.0 0.00 0.00 0.00 31 1011.3
20260830234733 99 160 5.0 9.0 0.00 0.00 0.00 31 1011.3
20260830234230 99 162 4.0 9.0 0.00 0.00 0.00 30 1011.3
20260830233725 99 200 4.0 7.0 0.00 0.00 0.00 29 1011.4
20260830233221 99 169 10.0 12.0 0.00 0.00 0.00 29 1011.4
20260830232716 99 170 3.0 11.0 0.00 0.00 0.00 29 1011.7
20260830232211 100 192 2.0 8.0 0.00 0.00 0.00 28 1011.5
20260830231708 99 180 3.0 13.0 0.00 0.00 0.00 29 1011.4
20260830231207 100 160 4.0 16.0 0.00 0.00 0.00 28 1011.7
20260830230702 100 149 3.0 14.0 0.00 0.00 0.00 28 1011.7
20260830230157 100 147 4.0 7.0 0.00 0.00 0.00 28 1011.7
20260830225652 100 197 4.0 10.0 0.00 0.00 0.00 29 1011.8
20260830225151 100 37 1.0 13.0 0.00 0.00 0.00 29 1012.0
20260830224650 100 132 7.0 13.0 0.00 0.00 0.00 30 1012.0
20260830224147 100 176 5.0 11.0 0.00 0.00 0.00 31 1011.9
20260830223643 100 155 5.0 11.0 0.00 0.00 0.00 31 1012.0
20260830223138 100 169 6.0 17.0 0.00 0.00 0.00 31 1012.0
20260830222633 100 162 18.0 18.0 0.00 0.00 0.00 31 1012.1
20260830222128 100 163 9.0 12.0 0.00 0.00 0.00 31 1011.9
20260830221623 100 141 3.0 16.0 0.00 0.00 0.00 30 1012.1
20260830221114 101 183 8.0 9.0 0.00 0.00 0.00 29 1011.9
20260830220609 99 132 6.0 9.0 0.00 0.00 0.00 31 1011.9
20260830220108 99 183 3.0 12.0 0.00 0.00 0.00 32 1012.0
20260830215608 100 161 8.0 17.0 0.00 0.00 0.00 31 1012.1
20260830215102 100 189 13.0 15.0 0.00 0.00 0.00 30 1012.1
20260830214557 100 181 12.0 19.0 0.00 0.00 0.00 30 1012.2
20260830214051 101 157 5.0 9.0 0.00 0.00 0.00 31 1012.0
20260830213545 102 132 4.0 14.0 0.00 0.00 0.00 30 1012.2
20260830213041 102 283 3.0 13.0 0.00 0.00 0.00 27 1012.0
20260830212537 101 180 10.0 20.0 0.00 0.00 0.00 28 1012.1
20260830212032 102 220 3.0 9.0 0.00 0.00 0.00 27 1012.0
20260830211527 102 158 4.0 7.0 0.00 0.00 0.00 28 1012.4
20260830211026 100 174 4.0 16.0 0.00 0.00 0.00 28 1012.5
20260830210521 100 168 8.0 14.0 0.00 0.00 0.00 28 1012.3
20260830210021 100 170 8.0 20.0 0.00 0.00 0.00 28 1012.5
20260830205518 100 162 1.0 17.0 0.00 0.00 0.00 28 1012.5
20260830205014 102 178 6.0 10.0 0.00 0.00 0.00 27 1012.7
20260830204513 102 135 4.0 16.0 0.00 0.00 0.00 28 1012.7
20260830204013 102 155 4.0 9.0 0.00 0.00 0.00 29 1012.7
20260830203509 101 169 8.0 12.0 0.00 0.00 0.00 29 1012.7
20260830203004 100 162 13.0 14.0 0.00 0.00 0.00 31 1012.7
20260830202458 101 169 2.0 17.0 0.00 0.00 0.00 30 1012.7
20260830201954 102 165 7.0 13.0 0.00 0.00 0.00 31 1012.8
20260830201453 101 158 10.0 13.0 0.00 0.00 0.00 30 1013.0
20260830200948 100 150 4.0 16.0 0.00 0.00 0.00 31 1013.2
20260830200442 100 164 7.0 10.0 0.00 0.00 0.00 32 1013.1
20260830195937 99 173 4.0 16.0 0.00 0.00 0.00 33 1013.2
20260830195432 99 151 3.0 16.0 0.00 0.00 0.00 32 1013.2
20260830194930 102 133 3.0 13.0 0.00 0.00 0.00 31 1013.5
20260830194425 100 176 6.0 9.0 0.00 0.00 0.00 33 1013.3
20260830193924 100 257 5.0 7.0 0.00 0.00 0.00 32 1013.5
20260830193423 100 179 5.0 15.0 0.00 0.00 0.00 31 1013.4
20260830192919 101 172 7.0 11.0 0.00 0.00 0.00 31 1013.2
20260830192414 100 130 4.0 11.0 0.00 0.00 0.00 31 1013.7
20260830191914 100 221 3.0 10.0 0.00 0.00 0.00 33 1013.7
20260830191409 99 181 3.0 10.0 0.00 0.00 0.00 34 1013.7
20260830190905 100 169 9.0 13.0 0.00 0.00 0.00 34 1013.8
20260830190400 100 179 10.0 14.0 0.00 0.00 0.00 33 1013.9
20260830185859 98 140 6.0 13.0 0.00 0.00 0.00 35 1014.0
20260830185354 98 122 3.0 16.0 0.00 0.00 0.00 35 1014.0
20260830184849 99 160 11.0 15.0 0.00 0.00 0.00 35 1013.9
20260830184348 98 166 7.0 13.0 0.00 0.00 0.00 36 1014.1
20260830183842 98 169 5.0 18.0 0.00 0.00 0.00 36 1014.3
20260830183336 100 178 13.0 14.0 0.00 0.00 0.00 34 1014.4
20260830182832 98 132 6.0 16.0 0.00 0.00 0.00 35 1014.5
20260830182328 99 186 4.0 20.0 0.00 0.00 0.00 34 1014.4
20260830181824 99 161 9.0 14.0 0.00 0.00 0.00 33 1014.5
20260830181319 98 170 5.0 12.0 0.00 0.00 0.00 35 1014.5
20260830180818 98 202 13.0 18.0 0.00 0.00 0.00 35 1014.5
20260830180313 98 151 11.0 14.0 0.00 0.00 0.00 35 1014.7
20260830175808 98 183 6.0 15.0 0.00 0.00 0.00 35 1015.0
20260830175308 99 215 5.0 13.0 0.00 0.00 0.00 34 1014.9
20260830174803 100 179 4.0 9.0 0.00 0.00 0.00 34 1015.0
20260830174258 98 167 5.0 11.0 0.00 0.00 0.00 35 1015.3
20260830173757 98 200 7.0 12.0 0.00 0.00 0.00 36 1015.1
20260830173253 97 171 6.0 15.0 0.00 0.00 0.00 37 1015.2
20260830172749 97 175 5.0 18.0 0.00 0.00 0.00 37 1015.4
20260830172246 97 193 11.0 17.0 0.00 0.00 0.00 36 1015.3
20260830171741 97 182 3.0 11.0 0.00 0.00 0.00 38 1015.2
20260830171236 96 204 4.0 17.0 0.00 0.00 0.00 39 1015.5
20260830170730 97 168 3.0 12.0 0.00 0.00 0.00 38 1015.7
20260830170230 97 168 10.0 17.0 0.00 0.00 0.00 37 1015.5
20260830165730 97 202 7.0 18.0 0.00 0.00 0.00 39 1015.7
20260830165226 96 162 4.0 11.0 0.00 0.00 0.00 40 1015.7
20260830164722 95 238 14.0 15.0 0.00 0.00 0.00 42 1015.8
20260830164217 96 210 5.0 12.0 0.00 0.00 0.00 41 1015.9
20260830163713 95 186 2.0 11.0 0.00 0.00 0.00 42 1015.9
20260830163209 96 208 7.0 11.0 0.00 0.00 0.00 41 1016.0
20260830162703 95 185 4.0 15.0 0.00 0.00 0.00 42 1016.0
20260830162159 95 172 3.0 13.0 0.00 0.00 0.00 44 1015.9
20260830161654 95 241 3.0 11.0 0.00 0.00 0.00 43 1015.9
20260830161148 94 224 9.0 19.0 0.00 0.00 0.00 44 1016.1
20260830160645 95 224 4.0 14.0 0.00 0.00 0.00 43 1016.1
20260830160139 94 239 2.0 10.0 0.00 0.00 0.00 46 1016.0
20260830155636 93 239 5.0 12.0 0.00 0.00 0.00 47 1016.1
20260830155131 93 174 5.0 14.0 0.00 0.00 0.00 48 1015.9
20260830154626 93 202 9.0 12.0 0.00 0.00 0.00 49 1016.0
20260830154123 93 220 2.0 14.0 0.00 0.00 0.00 50 1016.0
20260830153619 93 197 3.0 10.0 0.00 0.00 0.00 51 1015.9
20260830153119 92 281 3.0 11.0 0.00 0.00 0.00 53 1016.0
20260830152618 91 221 4.0 11.0 0.00 0.00 0.00 53 1016.0
20260830152117 92 179 7.0 12.0 0.00 0.00 0.00 53 1016.1
20260830151612 91 195 5.0 10.0 0.00 0.00 0.00 54 1016.0
20260830151107 91 220 7.0 11.0 0.00 0.00 0.00 54 1015.9
20260830150606 91 202 7.0 11.0 0.00 0.00 0.00 54 1016.1
20260830150101 90 253 3.0 8.0 0.00 0.00 0.00 56 1015.9
20260830145555 89 207 7.0 11.0 0.00 0.00 0.00 56 1016.0
20260830145050 89 190 5.0 12.0 0.00 0.00 0.00 56 1015.9
20260830144546 89 238 3.0 9.0 0.00 0.00 0.00 59 1016.0
20260830144042 89 245 4.0 9.0 0.00 0.00 0.00 59 1015.9
20260830143538 88 224 4.0 7.0 0.00 0.00 0.00 61 1016.0
20260830143035 87 225 3.0 9.0 0.00 0.00 0.00 63 1015.9
20260830142531 87 215 3.0 9.0 0.00 0.00 0.00 64 1016.1
20260830142020 87 204 3.0 6.0 0.00 0.00 0.00 64 1016.1
20260830141516 86 226 3.0 6.0 0.00 0.00 0.00 66 1016.0
20260830141016 86 225 6.0 8.0 0.00 0.00 0.00 67 1015.7
20260830140515 86 255 3.0 7.0 0.00 0.00 0.00 67 1015.8
20260830140011 85 198 4.0 7.0 0.00 0.00 0.00 69 1016.0
20260830135506 85 237 2.0 6.0 0.00 0.00 0.00 70 1015.8
20260830135001 84 221 5.0 8.0 0.00 0.00 0.00 71 1015.8
20260830134457 84 291 1.0 8.0 0.00 0.00 0.00 71 1016.0
20260830133952 84 234 3.0 8.0 0.00 0.00 0.00 72 1015.8
20260830133448 84 234 1.0 6.0 0.00 0.00 0.00 73 1015.5
20260830132943 83 298 0.0 5.0 0.00 0.00 0.00 73 1015.9
20260830132439 83 207 5.0 6.0 0.00 0.00 0.00 74 1015.8
20260830131938 82 238 3.0 5.0 0.00 0.00 0.00 75 1015.5
20260830131438 82 188 2.0 5.0 0.00 0.00 0.00 76 1015.3
20260830130932 81 236 2.0 6.0 0.00 0.00 0.00 77 1015.4
20260830130428 81 210 4.0 6.0 0.00 0.00 0.00 78 1015.4
20260830125927 80 232 3.0 5.0 0.00 0.00 0.00 79 1015.2
20260830125423 80 231 3.0 5.0 0.00 0.00 0.00 79 1015.2
20260830124920 80 229 2.0 4.0 0.00 0.00 0.00 80 1015.1
20260830124416 79 240 2.0 4.0 0.00 0.00 0.00 80 1015.3
20260830123912 79 247 2.0 4.0 0.00 0.00 0.00 81 1015.3
20260830123409 78 247 1.0 3.0 0.00 0.00 0.00 81 1015.1
20260830122906 78 239 2.0 4.0 0.00 0.00 0.00 82 1014.9
20260830122401 78 199 1.0 4.0 0.00 0.00 0.00 82 1014.9
20260830121856 78 266 1.0 5.0 0.00 0.00 0.00 83 1014.9
20260830121356 77 287 1.0 3.0 0.00 0.00 0.00 83 1015.0
20260830120851 77 240 2.0 3.0 0.00 0.00 0.00 83 1014.5
20260830120346 77 224 1.0 3.0 0.00 0.00 0.00 83 1014.6
20260830115842 77 254 1.0 3.0 0.00 0.00 0.00 82 1014.5
20260830115339 78 227 2.0 4.0 0.00 0.00 0.00 82 1014.7
20260830114834 78 206 2.0 3.0 0.00 0.00 0.00 82 1014.4
20260830114330 78 231 1.0 4.0 0.00 0.00 0.00 81 1014.3
20260830113825 78 274 1.0 4.0 0.00 0.00 0.00 81 1014.3
20260830113320 78 232 0.0 3.0 0.00 0.00 0.00 81 1014.4
20260830112816 78 232 1.0 4.0 0.00 0.00 0.00 80 1014.5
20260830112311 78 262 2.0 5.0 0.00 0.00 0.00 80 1014.3
20260830111807 78 236 1.0 5.0 0.00 0.00 0.00 79 1014.4
20260830111303 79 237 0.0 5.0 0.00 0.00 0.00 79 1014.3
20260830110802 79 193 3.0 5.0 0.00 0.00 0.00 79 1014.3
20260830110259 79 232 2.0 5.0 0.00 0.00 0.00 79 1014.0
20260830105757 79 207 2.0 5.0 0.00 0.00 0.00 79 1014.1
20260830105253 79 247 1.0 6.0 0.00 0.00 0.00 78 1014.4
20260830104744 79 250 1.0 3.0 0.00 0.00 0.00 78 1014.0
20260830104241 79 189 3.0 4.0 0.00 0.00 0.00 78 1014.0
20260830103740 79 213 1.0 3.0 0.00 0.00 0.00 78 1014.2
20260830103235 79 207 3.0 5.0 0.00 0.00 0.00 77 1013.8
20260830102733 79 244 2.0 5.0 0.00 0.00 0.00 77 1014.1
20260830102230 79 203 3.0 4.0 0.00 0.00 0.00 77 1014.1
20260830101725 79 246 2.0 3.0 0.00 0.00 0.00 76 1014.0
20260830101221 79 191 0.0 5.0 0.00 0.00 0.00 76 1014.0
20260830100714 79 230 4.0 5.0 0.00 0.00 0.00 76 1013.8
20260830100209 79 176 2.0 3.0 0.00 0.00 0.00 75 1014.0
20260830095708 79 185 3.0 4.0 0.00 0.00 0.00 74 1014.2
20260830095204 79 241 2.0 4.0 0.00 0.00 0.00 74 1014.2
20260830094659 79 229 2.0 4.0 0.00 0.00 0.00 74 1013.9
20260830094155 79 226 2.0 4.0 0.00 0.00 0.00 73 1013.8
20260830093650 80 210 2.0 4.0 0.00 0.00 0.00 73 1014.0
20260830093146 80 226 1.0 3.0 0.00 0.00 0.00 72 1013.9
20260830092640 80 235 0.0 5.0 0.00 0.00 0.00 72 1014.1
20260830092138 80 201 3.0 4.0 0.00 0.00 0.00 71 1013.7
20260830091638 80 214 3.0 6.0 0.00 0.00 0.00 71 1014.0
20260830091137 80 248 2.0 4.0 0.00 0.00 0.00 71 1014.0
20260830090632 80 215 2.0 4.0 0.00 0.00 0.00 70 1013.9
20260830090127 80 231 1.0 4.0 0.00 0.00 0.00 70 1013.9
20260830085626 80 180 2.0 4.0 0.00 0.00 0.00 70 1013.7
20260830085123 80 222 2.0 4.0 0.00 0.00 0.00 69 1013.9
20260830084618 80 194 2.0 3.0 0.00 0.00 0.00 69 1013.9
20260830084119 80 232 3.0 4.0 0.00 0.00 0.00 69 1013.9
20260830083614 81 215 2.0 4.0 0.00 0.00 0.00 68 1013.9
20260830083109 81 215 3.0 4.0 0.00 0.00 0.00 68 1013.9
20260830082609 81 239 2.0 4.0 0.00 0.00 0.00 68 1013.7
20260830082104 81 195 2.0 3.0 0.00 0.00 0.00 67 1013.8
20260830081600 81 204 3.0 5.0 0.00 0.00 0.00 67 1013.9
20260830081059 81 217 4.0 6.0 0.00 0.00 0.00 66 1013.7
20260830080554 82 219 2.0 5.0 0.00 0.00 0.00 66 1014.0
20260830080049 82 226 2.0 5.0 0.00 0.00 0.00 65 1014.0
20260830075544 82 213 3.0 4.0 0.00 0.00 0.00 64 1014.0
20260830075039 82 232 4.0 7.0 0.00 0.00 0.00 64 1014.1
20260830074535 82 213 2.0 6.0 0.00 0.00 0.00 63 1014.2
20260830074031 82 266 2.0 5.0 0.00 0.00 0.00 63 1014.1
20260830073527 82 206 3.0 5.0 0.00 0.00 0.00 63 1014.1
20260830073022 83 254 2.0 5.0 0.00 0.00 0.00 62 1014.0
20260830072517 83 204 3.0 5.0 0.00 0.00 0.00 62 1013.9
20260830072017 83 212 2.0 4.0 0.00 0.00 0.00 62 1014.0
20260830071513 83 205 2.0 7.0 0.00 0.00 0.00 61 1014.1
20260830071010 83 242 1.0 4.0 0.00 0.00 0.00 61 1014.0
20260830070505 83 234 2.0 5.0 0.00 0.00 0.00 61 1014.0
20260830070005 83 245 2.0 4.0 0.00 0.00 0.00 61 1014.2
20260830065504 84 180 3.0 5.0 0.00 0.00 0.00 60 1014.3
20260830065003 84 252 0.0 5.0 0.00 0.00 0.00 60 1014.2
20260830064458 84 240 1.0 5.0 0.00 0.00 0.00 60 1014.1
20260830063953 84 207 3.0 5.0 0.00 0.00 0.00 59 1014.2
20260830063453 84 252 1.0 5.0 0.00 0.00 0.00 59 1014.1
20260830062952 84 210 0.0 4.0 0.00 0.00 0.00 59 1014.2
20260830062451 84 193 3.0 3.0 0.00 0.00 0.00 58 1014.3
20260830061946 85 206 2.0 4.0 0.00 0.00 0.00 58 1014.2
20260830061441 85 212 1.0 4.0 0.00 0.00 0.00 58 1014.3
20260830060938 85 194 2.0 5.0 0.00 0.00 0.00 58 1014.2
20260830060434 85 208 2.0 5.0 0.00 0.00 0.00 57 1014.2
20260830055929 85 206 2.0 3.0 0.00 0.00 0.00 57 1014.3
20260830055425 85 191 1.0 3.0 0.00 0.00 0.00 57 1014.3
20260830054920 85 180 3.0 4.0 0.00 0.00 0.00 56 1014.2
20260830054416 85 187 1.0 4.0 0.00 0.00 0.00 56 1014.0
20260830053911 86 195 2.0 4.0 0.00 0.00 0.00 56 1014.2
20260830053401 86 220 2.0 4.0 0.00 0.00 0.00 55 1014.1
20260830052900 86 232 2.0 4.0 0.00 0.00 0.00 55 1014.1
20260830052355 86 201 2.0 3.0 0.00 0.00 0.00 54 1014.0
20260830051851 86 179 3.0 4.0 0.00 0.00 0.00 54 1014.1
20260830051346 86 146 1.0 3.0 0.00 0.00 0.00 53 1014.2
20260830050845 86 184 2.0 3.0 0.00 0.00 0.00 53 1014.2
20260830050340 87 219 1.0 3.0 0.00 0.00 0.00 53 1014.0
20260830045838 87 202 2.0 3.0 0.00 0.00 0.00 52 1014.1
20260830045334 87 185 3.0 5.0 0.00 0.00 0.00 52 1014.3
20260830044833 87 193 2.0 4.0 0.00 0.00 0.00 52 1014.0
20260830044329 87 211 2.0 6.0 0.00 0.00 0.00 51 1014.2
20260830043823 88 254 2.0 5.0 0.00 0.00 0.00 51 1014.1
20260830043318 88 195 4.0 6.0 0.00 0.00 0.00 50 1014.3
20260830042815 88 207 2.0 6.0 0.00 0.00 0.00 50 1014.1
20260830042311 88 181 2.0 5.0 0.00 0.00 0.00 49 1014.2
20260830041809 89 183 2.0 5.0 0.00 0.00 0.00 49 1014.1
20260830041303 89 213 2.0 8.0 0.00 0.00 0.00 48 1014.1
20260830040758 89 201 4.0 7.0 0.00 0.00 0.00 48 1014.0
20260830040255 89 162 2.0 5.0 0.00 0.00 0.00 47 1013.9
20260830035752 89 206 2.0 4.0 0.00 0.00 0.00 47 1014.1
20260830035248 89 224 1.0 4.0 0.00 0.00 0.00 46 1014.0
20260830034743 90 177 3.0 8.0 0.00 0.00 0.00 45 1014.1
20260830034242 90 182 5.0 7.0 0.00 0.00 0.00 45 1013.8
20260830033739 90 190 2.0 5.0 0.00 0.00 0.00 45 1013.9
20260830033238 90 181 1.0 6.0 0.00 0.00 0.00 46 1013.8
20260830032733 90 174 2.0 8.0 0.00 0.00 0.00 45 1014.0
20260830032228 90 159 3.0 5.0 0.00 0.00 0.00 45 1013.9
20260830031723 90 142 3.0 6.0 0.00 0.00 0.00 45 1013.8
20260830031218 90 157 1.0 8.0 0.00 0.00 0.00 44 1013.9
20260830030714 90 174 4.0 6.0 0.00 0.00 0.00 45 1013.8
20260830030210 90 156 4.0 7.0 0.00 0.00 0.00 45 1013.8
20260830025709 92 153 2.0 8.0 0.00 0.00 0.00 43 1013.7
20260830025203 92 173 2.0 6.0 0.00 0.00 0.00 42 1013.7
20260830024657 92 266 0.0 8.0 0.00 0.00 0.00 42 1013.6
20260830024156 92 168 4.0 7.0 0.00 0.00 0.00 42 1013.3
20260830023654 93 181 4.0 8.0 0.00 0.00 0.00 41 1013.4
20260830023149 93 162 2.0 7.0 0.00 0.00 0.00 41 1013.4
20260830022643 93 180 2.0 9.0 0.00 0.00 0.00 41 1013.2
20260830022139 93 168 4.0 6.0 0.00 0.00 0.00 40 1013.4
20260830021638 93 180 2.0 6.0 0.00 0.00 0.00 40 1013.3
20260830021133 93 186 2.0 7.0 0.00 0.00 0.00 40 1013.1
20260830020632 93 176 2.0 7.0 0.00 0.00 0.00 40 1013.1
20260830020128 93 173 4.0 7.0 0.00 0.00 0.00 40 1013.3
20260830015627 93 183 2.0 6.0 0.00 0.00 0.00 40 1013.1
20260830015124 93 165 2.0 7.0 0.00 0.00 0.00 39 1013.0
20260830014619 93 185 2.0 5.0 0.00 0.00 0.00 39 1013.1
20260830014115 93 174 2.0 5.0 0.00 0.00 0.00 39 1013.1
20260830013609 93 195 2.0 5.0 0.00 0.00 0.00 39 1013.0
20260830013104 94 167 2.0 5.0 0.00 0.00 0.00 39 1012.8
20260830012559 94 190 1.0 5.0 0.00 0.00 0.00 39 1012.8
20260830012056 94 170 2.0 3.0 0.00 0.00 0.00 39 1012.6
20260830011555 94 178 1.0 4.0 0.00 0.00 0.00 38 1012.9
20260830011050 95 203 2.0 4.0 0.00 0.00 0.00 38 1012.5
20260830010545 95 221 0.0 4.0 0.00 0.00 0.00 38 1012.8
20260830010041 95 185 3.0 5.0 0.00 0.00 0.00 37 1012.7
20260830005538 95 174 2.0 5.0 0.00 0.00 0.00 37 1012.7
20260830005032 96 191 0.0 3.0 0.00 0.00 0.00 36 1012.7
20260830004527 96 174 2.0 5.0 0.00 0.00 0.00 36 1012.6
20260830004026 97 166 2.0 4.0 0.00 0.00 0.00 35 1012.7
20260830003521 97 172 4.0 7.0 0.00 0.00 0.00 34 1012.7
20260830003016 98 189 3.0 6.0 0.00 0.00 0.00 34 1012.6
20260830002509 98 177 3.0 6.0 0.00 0.00 0.00 34 1012.9